Flag for Poland Weather past 2 weeks in Gliwice, Poland

Now
54 °F

Passing clouds.


Feels Like: 49 °F
Forecast: 47 / 68 °F
Wind: 17 mph from West

Location: Katowice Airport

Current Time: May 31, 2015 at 1:28:14 AM

Latest Report: May 31, 2015 at 1:00 AM


Visibility: N/A

Pressure: 30.01 "Hg

Humidity: 88%

Dew point: 50 °F

Location of GliwiceLocation

Historic Weather in Gliwice — Graph

°F

Gliwice temperature yesterday

Maximum temperature yesterday: 72 °F (at 12:00 PM)
Minimum temperature yesterday: 52 °F (at 4:00 AM)
Average temperature yesterday: 61 °F

Past Weeks' High & Low Weather Summary

 TemperatureHumidityPressure
High75 °F (May 19, 1:00 PM)100% (May 20, 4:30 AM)30.24 "Hg (May 20, 4:30 AM)
Low34 °F (May 16, 5:30 AM)30% (May 18, 3:00 PM)29.74 "Hg (May 19, 5:00 AM)
Average55 °F75%29.99 "Hg
* Reported Midnight between May 15 and May 16 — May 31 12:30 AM, Gliwice, Weather by CustomWeather, © 2015

Note: Actual official high and low records may vary slightly from our data, if they occured in-between our weather recording intervals... More about our weather records

Advertising

Gliwice weather history for previous 24 hours

 ConditionsComfort  
Time TempWeatherWind HumidityBarometerVisibility
12:30 AM
Sun, May 31
55 °FClear.6 mph94%30.01 "Hg10 mi
12:00 AM54 °FPassing clouds.3 mph94%30.01 "HgN/A
11:00 PM
Sat, May 30
54 °FClear.2 mph94%29.98 "Hg10 mi
10:30 PM55 °FPassing clouds.6 mph94%29.98 "HgN/A
10:00 PM55 °FClear.7 mph88%29.98 "Hg10 mi
9:30 PM55 °FSunny.7 mph88%29.98 "Hg10 mi
9:00 PM55 °FSunny.6 mph88%29.98 "Hg10 mi
8:30 PM57 °FSunny.7 mph82%29.95 "Hg10 mi
8:00 PM59 °FSunny.7 mph77%29.95 "Hg10 mi
7:30 PM57 °FPassing clouds.6 mph88%29.95 "HgN/A
7:00 PM57 °FPassing clouds.3 mph88%29.95 "HgN/A
6:30 PM57 °FPassing clouds.8 mph88%29.95 "HgN/A
6:00 PM57 °FThundershowers. Partly sunny.18 mph88%29.95 "Hg4 mi
5:30 PM61 °FThunderstorms. Partly sunny.16 mph77%29.92 "Hg5 mi
5:00 PM66 °FSprinkles. Scattered clouds.10 mph52%29.89 "HgN/A
4:30 PM68 °FSprinkles. Passing clouds.12 mph49%29.89 "HgN/A
4:00 PM72 °FSunny.13 mph41%29.89 "Hg10 mi
3:30 PM70 °FSunny.16 mph43%29.89 "Hg10 mi
3:00 PM70 °FSunny.18 mph40%29.89 "Hg10 mi
2:30 PM72 °FPassing clouds.17 mph47%29.89 "HgN/A
2:00 PM68 °FPassing clouds.16 mph56%29.89 "HgN/A
1:30 PM70 °FPassing clouds.14 mph46%29.86 "HgN/A
1:00 PM72 °FPassing clouds.18 mph47%29.86 "HgN/A
12:30 PM70 °FPassing clouds.18 mph50%29.89 "HgN/A
12:00 PM72 °FPassing clouds.17 mph50%29.86 "HgN/A
11:30 AM70 °FPassing clouds.18 mph53%29.86 "HgN/A
11:00 AM70 °FPassing clouds.20 mph50%29.86 "HgN/A
10:30 AM70 °FPassing clouds.18 mph50%29.86 "HgN/A
10:00 AM68 °FSunny.15 mph53%29.86 "Hg10 mi
9:30 AM66 °FSunny.14 mph56%29.86 "Hg10 mi
9:00 AM64 °FSunny.14 mph64%29.86 "Hg10 mi
8:30 AM63 °FSunny.14 mph64%29.86 "Hg10 mi
8:00 AM61 °FSunny.15 mph63%29.86 "Hg10 mi
7:30 AM61 °FSunny.12 mph68%29.86 "Hg10 mi
7:00 AM59 °FPassing clouds.8 mph68%29.86 "HgN/A
6:30 AM59 °FPassing clouds.8 mph68%29.86 "HgN/A
6:00 AM55 °FSunny.8 mph82%29.86 "Hg10 mi
5:30 AM52 °FClear.1 mph94%29.86 "Hg10 mi
5:00 AM54 °FClear.2 mph82%29.86 "Hg10 mi
4:30 AM52 °FClear.6 mph88%29.86 "Hg10 mi
4:00 AM52 °FClear.7 mph88%29.86 "Hg10 mi
3:30 AM54 °FClear.7 mph82%29.86 "Hg10 mi
3:00 AM55 °FPassing clouds.8 mph77%29.86 "HgN/A
2:30 AM57 °FClear.6 mph72%29.86 "Hg10 mi
2:00 AM59 °FClear.8 mph68%29.86 "Hg10 mi
1:30 AM59 °FPassing clouds.9 mph68%29.86 "HgN/A
1:00 AM59 °FPassing clouds.12 mph68%29.86 "HgN/A
Weather by CustomWeather, © 2015

See weather overviewHow to use our weather pages